[[{"header":{"parameterUnit":"m.s-1","parameterCategory":1,"la1":30.2991,"la2":30.254,"lo1":-89.0895,"lo2":-89.0444,"dy":0.0017,"dx":0.0017,"nx":28,"ny":28,"refTime":"2025-03-26T09:00:00:Z","depth":0,"parameterNumber":2,"parameterNumberName":"U-component_of_WINDS"},"data":[0,0,0,0,0,0,0,0,0,0,0,0,0,0,0,0,0,0,0,0,0,0,0,0,0,0,0,0,0,0,0,0,0,0,0,0,0,0,0,0,0,0,0,0,0,0,0,0,0,0,0,0,0,0,0,0,0,0,-1.058,-1.058,0,-1.0641,-1.0642,-1.0643,-1.0647,-1.0646,-1.0646,-1.0645,-1.0713,-1.0715,-1.0718,0,0,0,0,0,0,0,0,0,0,0,0,0,-1.047,-1.0472,-1.058,-1.058,-1.0581,-1.0641,-1.0642,-1.0643,-1.0647,-1.0646,-1.0645,-1.0645,-1.0712,-1.0715,-1.0718,0,0,0,0,0,0,0,0,0,0,0,0,0,-1.0523,-1.0473,-1.0579,-1.059,-1.0592,-1.0641,-1.0642,-1.0643,-1.0647,-1.0646,-1.0645,-1.0644,-1.0711,-1.0715,-1.0718,-1.0762,0,0,-1.0729,-1.0731,0,0,0,0,0,0,0,0,-1.052,-1.0527,-1.0588,-1.059,-1.0591,-1.0635,-1.0628,-1.0683,-1.0648,-1.0626,-1.0645,-1.0644,-1.0688,-1.0694,-1.0708,-1.0765,-1.0768,-1.073,-1.0732,-1.0734,-1.0735,0,0,0,0,0,0,0,-1.0517,-1.0525,-1.0604,-1.0589,-1.0591,-1.0594,-1.06,-1.0639,-1.0663,-1.0628,-1.0629,-1.0636,-1.0689,-1.0704,-1.0709,-1.0769,-1.073,-1.0733,-1.0735,-1.0737,-1.0868,-1.0869,0,0,0,0,0,0,-1.051,-1.0522,-1.0602,-1.0606,-1.0552,-1.0596,-1.0604,-1.0622,-1.0662,-1.0667,-1.0636,-1.0636,-1.0698,-1.0705,-1.0712,-1.0767,-1.0734,-1.0737,-1.0739,-1.0866,-1.0868,-1.0869,0,0,0,0,0,0,-1.0508,-1.0517,-1.06,-1.0564,-1.0575,-1.0599,-1.0621,-1.0624,-1.0639,-1.0668,-1.0673,-1.0647,-1.0698,-1.0707,-1.075,-1.0769,-1.0739,-1.0742,-1.0865,-1.0867,-1.0869,-1.0876,0,0,0,0,0,0,-1.0505,-1.0516,-1.0532,-1.0564,-1.0576,-1.0635,-1.0622,-1.0626,-1.0645,-1.0645,-1.068,-1.0685,-1.0698,-1.0744,-1.0753,-1.0773,-1.0745,-1.0863,-1.0866,-1.0868,-1.0874,-1.0878,-1.0881,0,0,0,0,0,-1.0501,-1.0533,-1.0533,-1.0543,-1.0597,-1.0636,-1.0643,-1.0656,-1.0647,-1.0664,-1.0682,-1.0684,-1.0765,-1.0748,-1.0759,-1.078,-1.0862,-1.0865,-1.0868,-1.0873,-1.0877,-1.0881,0,0,0,0,0,0,-1.0504,-1.0537,-1.0538,-1.0581,-1.0605,-1.0637,-1.0658,-1.0661,-1.069,-1.0688,-1.0704,-1.0712,-1.0755,-1.0772,-1.0753,-1.0826,-1.0813,-1.0818,-1.0813,-1.0818,-1.0821,-1.0816,-1.0748,0,0,0,0,0,-1.0509,-1.0537,-1.0565,-1.0601,-1.0613,-1.0634,-1.0651,-1.0659,-1.0686,-1.0697,-1.0719,-1.0746,-1.0778,-1.0799,-1.083,-1.0877,-1.0885,-1.0897,-1.09,-1.0903,-1.0907,-1.0935,-1.094,-1.0879,-1.0878,-1.0878,0,0,-1.0522,-1.0543,-1.056,-1.0602,-1.0622,-1.0652,-1.0642,-1.0675,-1.0697,-1.0702,-1.0744,-1.0761,-1.0793,-1.0838,-1.0859,-1.0854,-1.0926,-1.0907,-1.0909,-1.0912,-1.0938,-1.0944,-1.0949,-1.088,-1.088,-1.088,0,0,-1.0559,-1.0578,-1.061,-1.063,-1.0659,-1.0673,-1.068,-1.0711,-1.0722,-1.0764,-1.0769,-1.0797,-1.0851,-1.0874,-1.0892,-1.0939,-1.0941,-1.0948,-1.0967,-1.0993,-1.0998,-1.1002,-1.102,-1.1026,-1.0953,-1.0953,-1.0953,0,-1.0571,-1.0615,-1.0626,-1.0658,-1.0677,-1.0681,-1.0714,-1.0734,-1.0773,-1.0786,-1.0779,-1.0847,-1.0869,-1.092,-1.0931,-1.0946,-1.0956,-1.0945,-1.0996,-1.1001,-1.1005,-1.1022,-1.1028,-1.0953,-1.0953,-1.0953,-1.0953,0,-1.0629,-1.0659,-1.0681,-1.0717,-1.0739,-1.0771,-1.0789,-1.0809,-1.0815,-1.083,-1.0873,-1.0899,-1.0935,-1.0948,-1.0955,-1.1001,-1.0996,-1.0992,-1.098,-1.1011,-1.1027,-1.1034,-1.0954,-1.0954,-1.0954,-1.0954,0,0,-1.0671,-1.0712,-1.072,-1.0736,-1.0769,-1.0794,-1.0827,-1.0861,-1.0879,-1.0906,-1.0935,-1.0981,-1.0978,-1.0999,-1.1008,-1.1031,-1.1067,-1.1025,-1.1026,-1.1032,-1.112,-1.1123,-1.113,-1.1069,-1.107,-1.1071,-1.1118,0,-1.0713,-1.077,-1.0781,-1.0831,-1.086,-1.0864,-1.0893,-1.0918,-1.0933,-1.0961,-1.0978,-1.101,-1.1003,-1.1015,-1.1038,-1.1058,-1.1085,-1.1055,-1.1098,-1.1099,-1.109,-1.1139,-1.1142,-1.1185,-1.1124,-1.1125,-1.1126,0,-1.0769,-1.0796,-1.0848,-1.0878,-1.089,-1.0916,-1.0948,-1.0974,-1.1003,-1.1012,-1.1035,-1.1042,-1.1079,-1.1064,-1.1115,-1.1094,-1.1112,-1.1125,-1.1127,-1.1132,-1.1115,-1.1146,-1.1199,-1.1205,-1.1136,-1.1135,-1.1134,0,-1.0795,-1.0844,-1.0882,-1.0896,-1.0931,-1.0949,-1.0965,-1.0992,-1.1012,-1.1041,-1.1054,-1.1088,-1.1106,-1.1133,-1.1149,-1.1137,-1.1199,-1.1186,-1.121,-1.1209,-1.1223,-1.1222,-1.128,-1.1234,-1.1234,-1.1234,-1.1233,0,-1.0841,-1.0874,-1.0894,-1.0918,-1.0955,-1.0968,-1.1004,-1.102,-1.1044,-1.1072,-1.1079,-1.1105,-1.1125,-1.1154,-1.1168,-1.1208,-1.1217,-1.1226,-1.123,-1.1226,-1.1225,-1.1239,-1.1237,-1.1235,-1.1235,-1.1235,-1.1234,0,-1.0877,-1.0892,-1.0934,-1.0963,-1.0971,-1.0997,-1.1023,-1.1047,-1.1061,-1.1097,-1.1106,-1.1129,-1.1165,-1.1183,-1.1228,-1.1237,-1.1283,-1.1284,-1.1273,-1.1274,-1.1297,-1.1295,-1.1367,-1.1377,-1.1323,-1.1324,-1.1324,0,-1.0906,-1.093,-1.0962,-1.098,-1.0995,-1.1025,-1.1045,-1.1059,-1.108,-1.1114,-1.1134,-1.1169,-1.1198,-1.1254,-1.1277,-1.1311,-1.1314,-1.1337,-1.1319,-1.1315,-1.1315,-1.1314,-1.1317,-1.134,-1.134,-1.1341,-1.1341,0,-1.0955,-1.0961,-1.0989,-1.1019,-1.1042,-1.1067,-1.1092,-1.1107,-1.1125,-1.1149,-1.1184,-1.1206,-1.1251,-1.1286,-1.1322,-1.134,-1.1345,-1.1346,-1.1354,-1.1351,-1.1343,-1.1348,-1.1282,-1.1345,-1.1344,-1.1344,-1.1344,-1.1344,-1.0989,-1.1011,-1.1037,-1.1067,-1.1087,-1.111,-1.1133,-1.115,-1.1179,-1.1215,-1.1222,-1.126,-1.1289,-1.1337,-1.1356,-1.1387,-1.1383,-1.1393,-1.1396,-1.1399,-1.14,-1.1338,-1.1394,-1.1394,-1.1393,-1.1393,-1.1393,0,-1.104,-1.1056,-1.1083,-1.1117,-1.1141,-1.1141,-1.1168,-1.1189,-1.1221,-1.1247,-1.1274,-1.1315,-1.135,-1.1374,-1.141,-1.143,-1.1433,-1.1439,-1.1438,-1.1442,-1.1401,-1.1392,-1.1436,-1.1436,-1.1436,-1.1436,-1.1436,-1.1436,-1.1069,-1.1106,-1.1115,-1.1163,-1.118,-1.1215,-1.1231,-1.1252,-1.1273,-1.1317,-1.1345,-1.136,-1.1386,-1.1423,-1.1455,-1.1461,-1.1475,-1.1481,-1.1488,-1.1449,-1.1445,-1.1441,-1.1431,-1.1483,-1.1483,-1.1526,-1.1526,-1.1526]},{"header":{"parameterUnit":"m.s-1","parameterCategory":1,"la1":30.2991,"la2":30.254,"lo1":-89.0895,"lo2":-89.0444,"dy":0.0017,"dx":0.0017,"nx":28,"ny":28,"refTime":"2025-03-26T09:00:00:Z","depth":0,"parameterNumber":3,"parameterNumberName":"V-component_of_WINDS"},"data":[0,0,0,0,0,0,0,0,0,0,0,0,0,0,0,0,0,0,0,0,0,0,0,0,0,0,0,0,0,0,0,0,0,0,0,0,0,0,0,0,0,0,0,0,0,0,0,0,0,0,0,0,0,0,0,0,0,0,1.437,1.4371,0,1.4437,1.4438,1.4439,1.4462,1.4461,1.4461,1.4461,1.4529,1.4531,1.4533,0,0,0,0,0,0,0,0,0,0,0,0,0,1.4261,1.4263,1.437,1.4371,1.4372,1.4437,1.4438,1.4439,1.4462,1.4461,1.4461,1.4461,1.4528,1.4531,1.4533,0,0,0,0,0,0,0,0,0,0,0,0,0,1.4316,1.4264,1.437,1.4391,1.4394,1.4437,1.4438,1.4439,1.4462,1.4461,1.4461,1.4461,1.4528,1.4531,1.4534,1.4561,0,0,1.4543,1.4545,0,0,0,0,0,0,0,0,1.4313,1.432,1.4387,1.439,1.4393,1.4441,1.4425,1.448,1.4462,1.4436,1.4461,1.446,1.45,1.4505,1.4519,1.4564,1.4567,1.4544,1.4545,1.4547,1.4548,0,0,0,0,0,0,0,1.4309,1.4318,1.4397,1.4388,1.4391,1.4397,1.4404,1.4435,1.4469,1.4438,1.444,1.4448,1.4501,1.4516,1.4521,1.4568,1.4543,1.4546,1.4548,1.4549,1.4639,1.464,0,0,0,0,0,0,1.4302,1.4314,1.4395,1.4399,1.4351,1.4399,1.4408,1.4426,1.4469,1.4475,1.4448,1.4448,1.4511,1.4517,1.4523,1.4558,1.4547,1.455,1.4551,1.4639,1.464,1.464,0,0,0,0,0,0,1.43,1.4309,1.4392,1.4357,1.4368,1.4402,1.4422,1.4427,1.4442,1.4477,1.4483,1.4456,1.4511,1.4519,1.4552,1.4561,1.4551,1.4554,1.4638,1.4639,1.464,1.4628,0,0,0,0,0,0,1.4296,1.4308,1.4319,1.4357,1.437,1.4419,1.4422,1.4429,1.4447,1.4448,1.4486,1.4492,1.4511,1.4547,1.4555,1.4565,1.4556,1.4638,1.4639,1.464,1.4627,1.4628,1.4628,0,0,0,0,0,1.4292,1.4313,1.4319,1.4329,1.4384,1.442,1.4427,1.4449,1.4448,1.4459,1.4481,1.4491,1.4558,1.455,1.4559,1.457,1.4637,1.4638,1.464,1.4627,1.4628,1.4628,0,0,0,0,0,0,1.4274,1.4318,1.4326,1.4359,1.4386,1.4424,1.4438,1.4449,1.4476,1.4476,1.4501,1.451,1.4541,1.4559,1.4549,1.4599,1.4598,1.4601,1.4586,1.4587,1.4587,1.4582,1.4559,0,0,0,0,0,1.4274,1.43,1.4337,1.4362,1.4375,1.4404,1.4421,1.4435,1.4464,1.4475,1.45,1.4527,1.4554,1.4571,1.4599,1.463,1.4639,1.4642,1.4643,1.4643,1.4645,1.4663,1.4665,1.4644,1.4644,1.4644,0,0,1.4274,1.4301,1.4316,1.4359,1.4382,1.4407,1.4414,1.4441,1.446,1.4479,1.4511,1.453,1.4562,1.4595,1.461,1.4611,1.4653,1.4645,1.4645,1.4647,1.4665,1.4667,1.4668,1.4645,1.4645,1.4645,0,0,1.4288,1.4311,1.4335,1.4357,1.439,1.441,1.4415,1.4452,1.4465,1.4498,1.4513,1.4536,1.4583,1.4605,1.4622,1.4644,1.4653,1.4652,1.4654,1.4671,1.4673,1.4675,1.4682,1.4684,1.4654,1.4654,1.4654,0,1.4283,1.4323,1.4346,1.4372,1.439,1.4409,1.4433,1.4454,1.4494,1.4506,1.4507,1.4566,1.4588,1.4626,1.4631,1.4645,1.4652,1.4647,1.4671,1.4673,1.4675,1.4682,1.4685,1.4653,1.4654,1.4654,1.4654,0,1.4316,1.4343,1.4358,1.4397,1.4417,1.4442,1.4469,1.4487,1.4499,1.4518,1.4552,1.458,1.4613,1.4623,1.4635,1.4662,1.4661,1.4666,1.4666,1.4676,1.4683,1.4686,1.4653,1.4653,1.4653,1.4653,0,0,1.4319,1.437,1.4376,1.4393,1.4432,1.4453,1.4479,1.4511,1.4526,1.4553,1.4575,1.4615,1.4619,1.4639,1.4654,1.4669,1.4684,1.4672,1.4673,1.4673,1.4715,1.4711,1.4714,1.4691,1.4691,1.4692,1.4712,0,1.4337,1.4384,1.4405,1.4443,1.4468,1.4486,1.4508,1.4534,1.4553,1.4577,1.4597,1.4625,1.4629,1.4641,1.4656,1.4678,1.4692,1.4677,1.4711,1.4712,1.4702,1.4717,1.4713,1.4731,1.4715,1.4715,1.4716,0,1.4364,1.4392,1.4431,1.4467,1.4478,1.4498,1.4529,1.4552,1.4582,1.4594,1.4616,1.463,1.4658,1.4656,1.4695,1.4684,1.4699,1.4712,1.4713,1.4717,1.4714,1.4721,1.4737,1.474,1.472,1.472,1.472,0,1.4363,1.4409,1.4439,1.4454,1.4496,1.4509,1.4527,1.4557,1.4575,1.4602,1.4614,1.4644,1.4661,1.4684,1.4706,1.4702,1.4742,1.4742,1.4753,1.4752,1.476,1.4759,1.4778,1.477,1.477,1.477,1.477,0,1.438,1.4404,1.4439,1.4457,1.4484,1.4508,1.4534,1.4554,1.4579,1.4602,1.4619,1.464,1.4668,1.4692,1.471,1.4739,1.4746,1.4757,1.4761,1.4755,1.4754,1.4765,1.4764,1.4771,1.4771,1.477,1.477,0,1.4383,1.4407,1.4441,1.4478,1.4487,1.4505,1.4537,1.4555,1.4575,1.4603,1.4611,1.4641,1.4671,1.4695,1.4734,1.4745,1.4775,1.4781,1.4765,1.4768,1.4777,1.4775,1.4804,1.4809,1.4797,1.4797,1.4797,0,1.4392,1.4411,1.4449,1.4465,1.4483,1.4509,1.4528,1.4552,1.4571,1.4606,1.462,1.465,1.4676,1.4722,1.4747,1.4777,1.4783,1.4791,1.4787,1.4781,1.4783,1.4781,1.4783,1.4791,1.4791,1.4791,1.4791,0,1.4406,1.4417,1.4443,1.4474,1.4495,1.452,1.4546,1.4558,1.4587,1.4607,1.4637,1.4657,1.4696,1.4726,1.4758,1.4777,1.4789,1.4792,1.4796,1.479,1.478,1.4785,1.4766,1.4791,1.4791,1.4791,1.4791,1.4791,1.4412,1.443,1.4459,1.4488,1.4509,1.4533,1.4552,1.4574,1.4599,1.4633,1.4646,1.4677,1.4706,1.475,1.4769,1.4793,1.4795,1.48,1.4802,1.4803,1.4802,1.4776,1.4799,1.4799,1.4799,1.4799,1.4799,0,1.4427,1.4447,1.4473,1.4508,1.453,1.4539,1.4568,1.4586,1.4613,1.4639,1.4664,1.4698,1.4728,1.4755,1.4786,1.48,1.4806,1.4807,1.4806,1.481,1.4799,1.4792,1.4802,1.4802,1.4802,1.4802,1.4802,1.4802,1.4438,1.4467,1.4482,1.4522,1.4542,1.4572,1.4588,1.4609,1.463,1.4668,1.4692,1.471,1.4737,1.477,1.4797,1.4804,1.4814,1.4814,1.4823,1.4812,1.4811,1.481,1.4804,1.4816,1.4816,1.4832,1.4832,1.4832]}]]